Weather Roundup
Issued by NWS Chicago, IL

Home | Current Version | Previous Version | Graphics & Text | Print | Product List | Glossary On
Versions: 1 2 3 4 5 6 7 8 9 10 11 12 13 14 15 16 17 18 19 20 21 22 23 24 25 26 27 28 29 30 31 32 33 34 35 36 37 38 39 40 41 42 43 44 45 46 47 48 49 50
000
NZUS59 KLOT 020610
HRRLOT

CHICAGO AREA WEATHER ROUNDUP
NATIONAL WEATHER SERVICE CHICAGO/ROMEOVILLE IL
1200 AM CST MON MAR 02 2015

NOTE: "FAIR" INDICATES FEW OR NO CLOUDS BELOW 12,000 FEET WITH NO
SIGNIFICANT WEATHER AND/OR OBSTRUCTIONS TO VISIBILITY.

* THESE STATIONS ARE NOT UNDER NWS QUALITY CONTROL. THEY ALSO MAY NOT
  REPORT WEATHER SUCH AS PRECIPITATION OR FOG.

ILZ005-006-012>014-019>023-020700-
NORTHEAST ILLINOIS

CITY           SKY/WX    TMP DP  RH WIND       PRES   REMARKS
OHARE          PTCLDY    19   8  62 W13       30.36R WCI   6
6HR MIN TEMP:  18; 6HR MAX TEMP:  21;

MIDWAY         CLEAR     20  11  68 W10       30.37R WCI   9
6HR MIN TEMP:  20; 6HR MAX TEMP:  25;

AURORA         CLEAR     11   4  73 W10       30.39R WCI  -3
6HR MIN TEMP:  10; 6HR MAX TEMP:  20;

LANSING*       CLEAR     18  12  77 W8        30.38R WCI   8
JOLIET*        CLEAR     13   8  79 W3        30.41R
WAUKEGAN       CLEAR     17   7  64 W6        30.33R WCI   9
6HR MIN TEMP:  17; 6HR MAX TEMP:  22;

DUPAGE AIRPORT CLEAR     17   8  67 W12       30.37R WCI   4
6HR MIN TEMP:  17; 6HR MAX TEMP:  21;

WHEELING       CLEAR     19   7  59 W12       30.37R WCI   7
6HR MIN TEMP:  19; 6HR MAX TEMP:  23;

KANKAKEE*      PTCLDY    10   6  87 W10       30.40S WCI  -4
MORRIS*        CLEAR     11   7  85 W10       30.40R WCI  -3
LEWIS AIRPORT* CLEAR     13   8  80 W8        30.39R WCI   1
NORTHERLY IS     N/A     21  11  65 W8          N/A  WCI  12
$$

WIZ051-052-058>065-066-070>072-020700-
SOUTHEAST WISCONSIN

CITY           SKY/WX    TMP DP  RH WIND       PRES   REMARKS
MILWAUKEE      CLEAR     21   6  52 W12       30.32R WCI   9
6HR MIN TEMP:  21; 6HR MAX TEMP:  25;

KENOSHA*       CLEAR     16   6  65 W12       30.32R WCI   3
RACINE*        CLEAR     19   7  59 W10       30.33R WCI   7
BURLINGTON     CLEAR     15   5  66 W7        30.34R WCI   5
WAUKESHA       CLEAR     18   7  62 W10       30.32R WCI   6
WEST BEND      CLEAR     19   7  58 W13       30.28R WCI   7
$$

INZ001>003-010>013-019-020-020700-
NORTHWEST INDIANA

CITY           SKY/WX    TMP DP  RH WIND       PRES   REMARKS
GARY*          CLEAR     20  10  66 W5        30.38R WCI  13
6HR MIN TEMP:  20; 6HR MAX TEMP:  25;

MICHIGAN CITY* NOT AVBL
RENSSELAER*    NOT AVBL
VALPARAISO     PTCLDY    16  11  80 W13       30.35R WCI   2
$$

LMZ740>746-020700-
SOUTHERN LAKE MICHIGAN

STATION/POSITION TIME  SKY/WX   TEMP WIND        PRES    VSBY
                                AIR  DIR/SP/G
                 (UTC)          (F)  (DEG/KT/KT) (MB)    (MI)
HARRISON CRIB    0600            22  290/ 15/ 19   N/A
BURNHAM HARBOR   0600            21  270/ 10/ 16   N/A
CALUMET HARBOR   0600            20  270/  4/  7 1027.1R
BURNS HARBOR     NOT AVBL
MICHIGAN CITY    0600            20  250/ 15/ 17   N/A
$$

ABBREVIATIONS USED IN REMARKS
   TC - TEMPERATURE IN CELSIUS
  WCI - WIND CHILL INDEX
   HX - HEAT INDEX
  VSB - VISIBILITY
$$


USA.gov is the U.S. government's official web portal to all federal, state and local government web resources and services.